Regional Weather Roundup
Issued by NWS Portland, ME

Home | Current Version | Previous Version | Text Only | Print | Product List | Glossary On
Versions: 1 2 3 4 5 6 7 8 9 10 11 12 13 14 15 16 17 18 19 20 21 22 23 24 25 26 27 28 29 30 31 32 33 34 35 36 37 38 39 40 41 42 43 44 45 46 47 48 49 50
000
ASUS41 KGYX 312210
RWRGYX
WEATHER ROUNDUP FOR MAINE AND NEW HAMPSHIRE
NATIONAL WEATHER SERVICE GRAY ME
600 PM EDT MON AUG 31 2015

MEZ002-005-006-010-012-015-018-020-021-024-026-027-029-312300-
MAINE

CITY           SKY/WX    TMP DP  RH WIND       PRES   REMARKS
PORTLAND       PTSUNNY   83  63  50 W9        29.84R
SANFORD        MOSUNNY   82  61  47 W7        29.87R
BAR HARBOR     SUNNY     79  66  65 W3        29.78S
WISCASSET      MOSUNNY   83  62  49 VRB6      29.83R
ROCKLAND       SUNNY     77  64  65 S3        29.79S
FRYEBURG       MOSUNNY   80  64  58 NW7       29.87R
LEWISTONAUBURN SUNNY     81 N/A N/A NW10G16   29.85R
AUGUSTA        SUNNY     79  60  52 W12G22    29.83S
WATERVILLE     SUNNY     79  61  53 W6G16     29.79S
BANGOR         PTSUNNY   78  61  55 NW10      29.80R
GREENVILLE       N/A     70  58  65 VRB6      29.82R
MILLINOCKET    CLOUDY    78  60  53 W9        29.78R
HOULTON        SUNNY     75  59  57 W10G24    29.70R
PRESQUE ISLE   MOSUNNY   73  52  46 NW16G24   29.72R
FRENCHVILLE    CLOUDY    68  52  56 NW25G33   29.75R
CARIBOU        SUNNY     72  53  51 NW15G25   29.73R
$$

NHZ002-005-008-009-011-012-014-312300-
NEW HAMPSHIRE

CITY           SKY/WX    TMP DP  RH WIND       PRES   REMARKS
PORTSMOUTH     MOSUNNY   85  63  47 W7        29.84R
ROCHESTER      SUNNY     83  63  50 VRB3      29.86R
NASHUA         MOSUNNY   86  64  47 W7G14     29.89R
MANCHESTER     MOSUNNY   85  62  46 W8        29.86R
CONCORD        SUNNY     85  62  46 W9G18     29.88R
LACONIA        PTSUNNY   82  63  51 NW6       29.87R
PLYMOUTH       FAIR      80  61  53 W3        29.88S
BERLIN         MOSUNNY   75  61  61 VRB5      29.92R
WHITEFIELD     MOSUNNY   76  62  62 NW12G21   29.92R
JAFFREY        PTSUNNY   81  63  54 W8        29.94R
KEENE          SUNNY     82  63  51 W3        29.92R
LEBANON        PTSUNNY   84  62  47 VRB5      29.91R
MT WASHINGTON  FOG       52  52 100 W53G71      N/A  VSB 0
$$

VTZ005-007-008-312300-
VERMONT

CITY           SKY/WX    TMP DP  RH WIND       PRES   REMARKS
ST JOHNSBURY     N/A     77  60  55 MISG      29.90S
MONTPELIER     MOSUNNY   74  62  66 NW9       29.98R
BURLINGTON     MOSUNNY   80  63  55 N8        29.92S
$$

MAZ007-012-024-CTZ003-RIZ002-NYZ038-NYZ072-312300-
SOUTHERN NEW ENGLAND AND NY

CITY           SKY/WX    TMP DP  RH WIND       PRES   REMARKS
BOSTON         MOSUNNY   87  61  41 W16G23    29.87R
WORCESTER      SUNNY     80  62  54 W12       29.95R
NANTUCKET      PTSUNNY   76  69  79 SW15G22   29.92R
PROVIDENCE     PTSUNNY   86  66  51 W10       29.91R
HARTFORD       MOSUNNY   87  64  46 W7        29.91R
ALBANY         MOSUNNY   84  63  49 NW16G26   29.94R
NEW YORK CITY  MOSUNNY   90  63  40 W15       29.94R HX  91
$$

ANZ081-ANZ082-ANZ150-NHZ014-MEZ023>029-312300-
COASTAL MARINE OBSERVATIONS

STATION/POSITION TIME  TEMP    WIND        PRES    WAVE
                       AIR SEA DIR/SP/G            HT/PER
                 (UTC) (F)     (DEG/KT/KT) (MB)    (FT/S)
MOUNT DESERT ROC 2200   62     230/ 18/ 19 1009.1R
MATINICUS ROCK   2200          250/ 24/ 25 1008.9R
ISLE OF SHOALS   2200   83     270/ 11/ 11 1010.4R
JEFFREYS LEDGE   2103      70                N/A     2/ 9
CASHES LEDGE BUO 2150   71                 1010.0R   2/ 8
GEORGES BANK BUO 2050   70 69  260/ 12/ 14 1012.3    3/10
$$

.............KEY..............
   WCI - WIND CHILL
   TC  - TEMPERATURE IN CELSIUS
   VSB - VISIBILITY IN MILES
   HX  - HEAT INDEX
   FAIR- INDICATES FEW OR NO CLOUDS BELOW 12,000 FT, WITH NO
         SIGNIFICANT WEATHER AND/OR OBSTRUCTIONS TO VISIBILITY.





USA.gov is the U.S. government's official web portal to all federal, state and local government web resources and services.